Regional Weather Roundup
Issued by NWS

Home | Current Version | Previous Version | Graphics & Text | Print | Product List | Glossary On
Versions: 1 2 3 4 5 6 7 8 9 10 11 12 13 14 15 16 17 18 19 20 21 22 23 24 25 26 27 28 29 30 31 32 33 34 35 36 37 38 39 40 41 42 43 44 45 46 47 48 49 50
098
ASUS43 KFSD 290402
RWRSD

WEATHER ROUNDUP FOR SOUTH DAKOTA
NATIONAL WEATHER SERVICE SIOUX FALLS SD
1100 PM CDT WED JUN 28 2017

NOTE: "FAIR" INDICATES FEW OR NO CLOUDS BELOW 12,000 FEET WITH NO
SIGNIFICANT WEATHER AND/OR OBSTRUCTIONS TO VISIBILITY.


SDZ001>005-009-010-012>017-290500-
NORTHWEST AND NORTH CENTRAL SOUTH DAKOTA

CITY           SKY/WX    TMP DP  RH WIND       PRES   REMARKS
BUFFALO          N/A     65  53  65 W14       29.77F
FAITH            N/A     69  38  32 SW9       29.83R
MOBRIDGE       MOCLDY    68  41  37 NE9       29.73S
$$

SDZ012>016-024>037-041>051-057-063-072>074-290500-
SOUTHWEST AND SOUTH CENTRAL SOUTH DAKOTA

CITY           SKY/WX    TMP DP  RH WIND       PRES   REMARKS
RAPID CTY ARPT CLOUDY    63  50  62 N14       29.85R
PIERRE         CLOUDY    69  35  28 NE10      29.70F
CUSTER         CLOUDY    56  48  74 N6        29.93R
ELLSWORTH AFB  CLOUDY    65  49  55 N13       29.84R
PHILIP         CLOUDY    69  51  52 N6        29.76R
PINE RIDGE     CLOUDY    63  57  81 E9        29.83R
SPEARFISH      MOCLDY    55  54  94 S9        29.89S
WINNER         FAIR      69  48  47 E6        29.75R
$$

SDZ004>011-016>023-039-040-290500-
NORTHEAST SOUTH DAKOTA

CITY           SKY/WX    TMP DP  RH WIND       PRES   REMARKS
ABERDEEN       CLEAR     62  46  55 N6        29.72R
WATERTOWN      CLEAR     63  59  87 CALM      29.72R
BROOKINGS      CLEAR     65  53  65 NE3       29.73R
SISSETON         N/A     64  61  90 NW8       29.69R
$$

SDZ017-020-022-023-036>040-048>070-290500-
SOUTHEAST SOUTH DAKOTA

CITY           SKY/WX    TMP DP  RH WIND       PRES   REMARKS
SIOUX FALLS    CLEAR     65  59  81 N6        29.70R
HURON          CLEAR     64  46  52 N6        29.71R
CHAMBERLAIN    PTCLDY    76  45  33 N5        29.73R
MITCHELL       CLEAR     69  46  43 N5        29.71R
YANKTON        CLEAR     70  62  76 NW7       29.70R
$$

ABBREVIATIONS USED IN REMARKS
   TC - TEMPERATURE IN CELSIUS
  WCI - WIND CHILL INDEX
   HX - HEAT INDEX
  VSB - VISIBILITY





USA.gov is the U.S. government's official web portal to all federal, state and local government web resources and services.